Orbital Elements at Epoch 2459200.5 (2020-Dec-17.0) TDB
Reference: JPL 15 (heliocentric ecliptic J2000)
Element | Value | Uncertainty (1-sigma) | Units |
e | .3690064131474985 | 5.3474e-08 | |
a | 2.780312256745016 | 3.1037e-08 | au |
q | 1.75435920345351 | 1.5339e-07 | au |
i | 8.930712213684338 | 5.7501e-06 | deg |
node | 270.916683430121 | 4.8306e-05 | deg |
peri | 54.26366775534004 | 4.9446e-05 | deg |
M | 302.2527393518793 | 1.7075e-05 | deg |
tp | 2459472.123708853630 (2021-Sep-14.62370885) | 8.3962e-05 | TDB |
period | 1693.319026562154 4.64 | 2.8354e-05 7.763e-08 | d yr |
n | .2126002214307405 | 3.5599e-09 | deg/d |
Q | 3.806265310036521 | 4.2489e-08 | au |
|
| | Orbit Determination Parameters
Additional Information
|